Weather History for Fort Indiantown Gap, PA

Change the Weather History Date:

Wednesday, July 24, 2013

  Actual Average Record
Temperature  
Mean Temperature 70 °F -  
Max Temperature 78 °F 81 °F 96 °F (2001)
Min Temperature 61 °F 66 °F 51 °F (2007)
Cooling Degree Days 5    
Growing Degree Days 20 (Base 50)    
Moisture  
Dew Point 59 °F    
Average Humidity 65    
Maximum Humidity 85    
Minimum Humidity 42    
Precipitation  
Precipitation 0.00 in - - ()
Sea Level Pressure  
Sea Level Pressure 29.82 in    
Wind  
Wind Speed 5 mph (NNW)    
Max Wind Speed 9 mph    
Max Gust Speed 21 mph    
Visibility 10 miles    
Events      
Averages and records for this station are not official NWS values.
T = Trace of Precipitation, MM = Missing Value Source: NWS Daily Summary

Daily Weather History Graph

Daily Weather History Graph

Search for Another Location

Airport:

Trip Planner

Search our weather history database for the weather conditions in past years. The results will help you decide how hot, cold, wet, or windy it might be!

Date:

Astronomy

Jul. 24, 2013 Rise Set
Actual Time 5:56 AM EDT 8:28 PM EDT
Civil Twilight 5:25 AM EDT 8:59 PM EDT
Nautical Twilight 4:46 AM EDT 9:38 PM EDT
Astronomical Twilight 4:02 AM EDT 10:22 PM EDT
Moon 9:32 PM EDT (7/24) 8:14 AM EDT (7/24)
Length of Visible Light 15h 34m
Length of Day
14h 32m
Waning Gibbous, 95% of the Moon is Illuminated
Jul 24
Waning Gibbous
Jul 29
Last Quarter
Aug 6
New
Aug 14
First Quarter
Aug 20
Full

Hourly Weather History & Observations

Time (EDT) Temp. Dew Point Humidity Pressure Visibility Wind Dir Wind Speed Gust Speed Precip Events Conditions
12:58 AM 74.1 °F 63.1 °F 68% 29.71 in 10.0 mi North 1.2 mph - N/A   Clear
1:58 AM 70.3 °F 65.7 °F 85% 29.70 in 10.0 mi Calm Calm - N/A   Clear
2:58 AM 73.4 °F 61.7 °F 67% 29.69 in 10.0 mi NNW 6.9 mph - N/A   Clear
3:58 AM 74.7 °F 61.7 °F 64% 29.69 in 10.0 mi Variable 5.8 mph - N/A   Clear
4:58 AM 73.6 °F 62.2 °F 68% 29.70 in 10.0 mi Variable 4.6 mph - N/A   Clear
5:58 AM 72.5 °F 62.6 °F 71% 29.72 in 10.0 mi Variable 3.5 mph - N/A   Clear
6:58 AM 72.5 °F 62.8 °F 71% 29.73 in 10.0 mi Variable 3.5 mph - N/A   Clear
7:58 AM 73.2 °F 63.5 °F 71% 29.76 in 10.0 mi West 5.8 mph - N/A   Partly Cloudy
8:36 AM 73.4 °F 64.4 °F 73% 29.78 in 10.0 mi Variable 5.8 mph - N/A   Mostly Cloudy
8:58 AM 72.3 °F 63.5 °F 74% 29.79 in 10.0 mi Variable 5.8 mph - N/A   Overcast
9:22 AM 71.6 °F 64.4 °F 78% 29.80 in 10.0 mi Variable 5.8 mph - N/A   Overcast
9:48 AM 71.6 °F 64.4 °F 78% 29.81 in 10.0 mi NNW 8.1 mph - N/A   Overcast
9:58 AM 71.2 °F 64.4 °F 79% 29.81 in 10.0 mi North 4.6 mph - N/A   Overcast
10:26 AM 71.6 °F 62.6 °F 73% 29.82 in 10.0 mi NNW 9.2 mph 20.7 mph N/A   Overcast
10:30 AM 71.6 °F 62.6 °F 73% 29.82 in 10.0 mi NNW 9.2 mph 20.7 mph N/A   Overcast
10:44 AM 71.6 °F 60.8 °F 69% 29.83 in 10.0 mi Variable 5.8 mph - N/A   Mostly Cloudy
10:58 AM 72.0 °F 61.5 °F 70% 29.83 in 10.0 mi NNW 9.2 mph - N/A   Scattered Clouds
11:58 AM 73.8 °F 59.4 °F 61% 29.84 in 10.0 mi Variable 4.6 mph 18.4 mph N/A   Partly Cloudy
12:58 PM 74.1 °F 58.6 °F 58% 29.84 in 10.0 mi North 5.8 mph - N/A   Mostly Cloudy
1:58 PM 75.0 °F 56.8 °F 53% 29.84 in 10.0 mi NNW 3.5 mph - N/A   Overcast
2:58 PM 77.4 °F 55.2 °F 46% 29.84 in 10.0 mi WNW 8.1 mph - N/A   Scattered Clouds
3:58 PM 76.1 °F 53.6 °F 45% 29.85 in 10.0 mi NNE 8.1 mph - N/A   Scattered Clouds
4:58 PM 77.4 °F 52.7 °F 42% 29.86 in 10.0 mi NW 9.2 mph - N/A   Partly Cloudy
5:58 PM 76.5 °F 52.3 °F 43% 29.86 in 10.0 mi NW 9.2 mph - N/A   Clear
6:58 PM 74.3 °F 52.9 °F 47% 29.87 in 10.0 mi North 5.8 mph - N/A   Clear
7:58 PM 71.4 °F 54.0 °F 54% 29.89 in 10.0 mi NNW 6.9 mph - N/A   Clear
8:58 PM 68.2 °F 52.5 °F 57% 29.92 in 10.0 mi North 5.8 mph - N/A   Clear
9:58 PM 65.8 °F 52.5 °F 62% 29.95 in 10.0 mi NNE 4.6 mph - N/A   Clear
10:58 PM 63.7 °F 52.0 °F 66% 29.99 in 10.0 mi Variable 3.5 mph - N/A   Clear
11:58 PM 61.0 °F 51.8 °F 72% 29.99 in 10.0 mi NNE 4.6 mph - N/A   Clear